Regional Weather Roundup
Issued by NWS Little Rock, AR

Home | Current Version | Previous Version | Graphics & Text | Print | Product List | Glossary On
Versions: 1 2 3 4 5 6 7 8 9 10 11 12 13 14 15 16 17 18 19 20 21 22 23 24 25 26 27 28 29 30 31 32 33 34 35 36 37 38 39 40 41 42 43 44 45 46 47 48 49
000
ASUS44 KLZK 241205
RWRLZK

WEATHER ROUNDUP FOR ARKANSAS
NATIONAL WEATHER SERVICE LITTLE ROCK AR
700 AM CDT SUN MAY 24 2015

NOTE: "FAIR" INDICATES FEW OR NO CLOUDS BELOW 12,000 FEET WITH NO
SIGNIFICANT WEATHER AND/OR OBSTRUCTIONS TO VISIBILITY.

ARZ001-003-010-029-241300-
NORTHWEST ARKANSAS

CITY           SKY/WX    TMP DP  RH WIND       PRES   REMARKS
FAYETTEVILLE   CLOUDY    68  67  96 S6        29.96S
6HR MIN TEMP:  66; 6HR MAX TEMP:  70; 6HR PCP:  0.33;

FORT SMITH     CLOUDY    71  67  87 E7        29.92S
6HR MIN TEMP:  70; 6HR MAX TEMP:  73; 6HR PCP:  0.04;

HARRISON       CLOUDY    68  66  93 S9        30.00S
6HR MIN TEMP:  65; 6HR MAX TEMP:  70; 6HR PCP:  0.08;

BENTONVILLE    CLOUDY   N/A N/A N/A CALM      29.97R
                                      6HR PCP:  1.81;

ROGERS         LGT RAIN  64  63  96 SW3       29.98R
6HR MIN TEMP:  64; 6HR MAX TEMP:  68;

SILOAM SPGS    CLOUDY    63  57  82 SE5       29.97S
6HR MIN TEMP:  63; 6HR MAX TEMP:  68; 6HR PCP:  2.43;

HIGHFILL       CLOUDY    64  50  61 S3        29.96S
6HR MIN TEMP:  64; 6HR MAX TEMP:  70; 6HR PCP:  2.25;

SPRINGDALE     LGT RAIN  64  64 100 CALM      29.98S FOG
$$

ARZ004-005-016-241300-
NORTH CENTRAL ARKANSAS

CITY           SKY/WX    TMP DP  RH WIND       PRES   REMARKS
BATESVILLE     PTSUNNY   70  63  78 E7        30.05S
6HR MIN TEMP:  68; 6HR MAX TEMP:  70;

FLIPPIN        CLOUDY    72  66  83 SE6       29.99F
6HR MIN TEMP:  63; 6HR MAX TEMP:  72;

MTN HOME       LGT RAIN  68  64  87 SE9       30.02R FOG
6HR MIN TEMP:  66; 6HR MAX TEMP:  68; 6HR PCP: TRACE;

$$

ARZ040-041-241300-
WEST CENTRAL ARKANSAS

CITY           SKY/WX    TMP DP  RH WIND       PRES   REMARKS
MENA           CLOUDY    73  70  88 SE9       29.97S
MOUNT IDA      CLOUDY    73  67  81 VRB7      29.97S
6HR MIN TEMP:  71; 6HR MAX TEMP:  76; 6HR PCP:  0.24;

$$

ARZ009-017-025-026-028-241300-
NORTHEAST ARKANSAS

CITY           SKY/WX    TMP DP  RH WIND       PRES   REMARKS
CORNING          N/A     66  64  94 SE12      30.09S
JONESBORO      PTSUNNY   70  62  76 S10       30.09S
6HR MIN TEMP:  65; 6HR MAX TEMP:  70; 6HR PCP: TRACE;

NEWPORT        PTSUNNY   70  64  81 SE9       30.08S
6HR MIN TEMP:  68; 6HR MAX TEMP:  71;

WALNUT RIDGE   MOSUNNY   70  61  73 SE10      30.07S
6HR MIN TEMP:  68; 6HR MAX TEMP:  72;

BLYTHEVILLE    MOSUNNY   71  60  68 S14       30.12S
6HR MIN TEMP:  70; 6HR MAX TEMP:  71;

$$

ARZ022-023-033-042-044-241300-
CENTRAL ARKANSAS

CITY           SKY/WX    TMP DP  RH WIND       PRES   REMARKS
LITTLE ROCK    CLOUDY    74  67  78 SE7       30.04S
6HR MIN TEMP:  71; 6HR MAX TEMP:  74; 6HR PCP: TRACE;

N LITTLE ROCK    N/A     72  69  91 S7        30.04S
6HR MIN TEMP:  70; 6HR MAX TEMP:  72;

JACKSONVILLE   PTSUNNY   72  67  86 SE8       30.04R
6HR MIN TEMP:  71; 6HR MAX TEMP:  72;

SEARCY         PTSUNNY   71  66  84 SE7       30.07R
6HR MIN TEMP:  66; 6HR MAX TEMP:  71;

HOT SPRINGS    CLOUDY    73  69  87 S10G17    30.01F
6HR MIN TEMP:  73; 6HR MAX TEMP:  74; 6HR PCP: TRACE;

RUSSELLVILLE   CLOUDY    73  69  87 VRB3      29.99S
6HR MIN TEMP:  70; 6HR MAX TEMP:  73; 6HR PCP:  0.03;

CLINTON        PTSUNNY   72  68  88 SE6       30.04S
$$

ARZ036-241300-
EAST ARKANSAS

CITY           SKY/WX    TMP DP  RH WIND       PRES   REMARKS
WEST MEMPHIS   MOSUNNY   70  63  78 SE10      30.10F
6HR MIN TEMP:  68; 6HR MAX TEMP:  72;

$$

ARZ050-053-066-070-073-241300-
SOUTHWEST ARKANSAS

CITY           SKY/WX    TMP DP  RH WIND       PRES   REMARKS
ARKADELPHIA    PTSUNNY   73  72  97 S6        30.02S
6HR MIN TEMP:  72; 6HR MAX TEMP:  74; 6HR PCP: TRACE;

CAMDEN         MOCLDY    73  68  83 NE7       30.02S
TEXARKANA      CLOUDY    73  70  90 SE14      29.99R
6HR MIN TEMP:  72; 6HR MAX TEMP:  73; 6HR PCP: TRACE;

EL DORADO      CLOUDY    73  70  90 SE9       30.03R
6HR MIN TEMP:  72; 6HR MAX TEMP:  74;

DE QUEEN       CLOUDY    73  70  90 SE6       29.94S
6HR MIN TEMP:  73; 6HR MAX TEMP:  74;

$$

ARZ056-057-069-241300-
SOUTHEAST ARKANSAS

CITY           SKY/WX    TMP DP  RH WIND       PRES   REMARKS
PINE BLUFF     MOSUNNY   73  69  87 S8        30.06R
6HR MIN TEMP:  71; 6HR MAX TEMP:  73;

STUTTGART      CLOUDY    72  66  83 MISG      30.08R
6HR MIN TEMP:  72; 6HR MAX TEMP:  73;

MONTICELLO     MOSUNNY   70  69  97 SE3       30.07R
6HR MIN TEMP:  69; 6HR MAX TEMP:  73;


$$




USA.gov is the U.S. government's official web portal to all federal, state and local government web resources and services.